Notices

What's New in latest Release from April 7th, 2021:

- Updated Glossary, including Speed of Maximum Gust, and Total Hourly Precipitation

- Updated national and regional climate services offices contacts and prices information

- Addition of station inventory lists for 1981-2010, 1971-2000, and 1961-1990 Normals.

If you haven't already, please take our survey and provide feedback about our website: https://eccc.sondage-survey.ca/f/LanguageSelection.aspx?s=442ca660-fcf1-47c0-95a9-59707d6fd709

Hourly Data Report for January 29, 2021

CARBERRY CS
MANITOBA
Current Station Operator: ECCC - MSC

49°54'20.900" N
99°21'26.800" W
383.50 m
5010547
71170
WZE

Download Data

Hourly Data (January 2021)
Hourly Data Report for January 29, 2021
TIME
LST
Temp Definition
°C
Dew Point Definition
°C
Rel Hum Definition
%
Precip. Amount Definition
mm

Wind Dir Definition
10's deg

Wind Spd Definition
km/h
Visibility Definition
km
Stn Press Definition
kPa
Hmdx Definition


Wind Chill Definition


Weather Definition


00:00 -11.4 -14.1 81 0.0 10 11   97.85   -17 LegendNANA
01:00 -11.2 -14.4 77 0.0 11 14   97.76   -18 LegendNANA
02:00 -11.0 -14.2 77 0.0 12 14   97.71   -18 LegendNANA
03:00 -10.9 -13.9 79 0.0 11 12   97.67   -17 LegendNANA
04:00 -10.8 -13.4 81 0.0 10 11   97.63   -17 LegendNANA
05:00 -11.2 -13.9 81 0.0 9 13   97.56   -18 LegendNANA
06:00 -11.3 -13.9 81 0.0 9 15   97.52   -18 LegendNANA
07:00 -11.2 -13.6 82 0.0 9 16   97.55   -18 LegendNANA
08:00 -11.0 -13.3 83 0.0 10 17   97.47   -18 LegendNANA
09:00 -10.6 -12.7 84 0.0 10 16   97.39   -18 LegendNANA
10:00 -10.5 -12.5 85 0.0 11 16   97.33   -18 LegendNANA
11:00 -10.5 -12.6 85 0.0 11 18   97.29   -18 LegendNANA
12:00 -10.4 -12.5 85 0.0 10 18   97.24   -18 LegendNANA
13:00 -9.8 -12.2 83 0.0 11 23   97.10   -18 LegendNANA
14:00 -8.8 -11.5 81 0.0 12 19   97.03   -16 LegendNANA
15:00 -8.6 -11.2 81 0.0 12 21   96.95   -16 LegendNANA
16:00 -8.3 -10.8 82 0.0 12 21   96.89   -16 LegendNANA
17:00 -7.6 -9.9 84 0.0 12 14   96.87   -14 LegendNANA
18:00 -7.6 -9.7 85 0.0 12 15   96.89   -14 LegendNANA
19:00 -7.9 -9.6 88 0.0 11 17   96.84   -15 LegendNANA
20:00 -7.8 -8.9 91 0.0 12 16   96.83   -14 LegendNANA
21:00 -7.6 -8.5 93 0.0 12 17   96.74   -14 LegendNANA
22:00 -7.7 -8.1 97 0.0 13 17   96.75   -14 LegendNANA
23:00 -7.5 -8.1 95 0.0 13 14   96.78   -13 LegendNANA

Notes on Data Quality.

Legend

  • E = Estimated
  • M = Missing
  • NA = Not Available*
  • [empty] = Indicates an unobserved value
Date modified: